| time (UTC) | temp C | wind direction | speed KPH | gust KPH | rain 1hr cm | rain 24hr cm | rain mn cm | humidity % | barometer mb |
| 20260507065018 | 6 | 161 | 22.5 | 49.9 | 0.00 | 0.00 | 0.00 | 67 | 1010.2 |
| 20260507064546 | 6 | 252 | 22.5 | 49.9 | 0.00 | 0.00 | 0.00 | 68 | 1010.3 |
| 20260507064015 | 6 | 259 | 27.4 | 49.9 | 0.00 | 0.00 | 0.00 | 70 | 1010.2 |
| 20260507063517 | 6 | 252 | 20.9 | 43.5 | 0.00 | 0.00 | 0.00 | 72 | 1010.3 |
| 20260507063047 | 6 | 302 | 16.1 | 43.5 | 0.00 | 0.00 | 0.00 | 76 | 1010.6 |
| 20260507062519 | 5 | 212 | 24.1 | 37.0 | 0.00 | 0.00 | 0.00 | 77 | 1010.2 |
| 20260507062201 | 6 | 231 | 22.5 | 43.5 | 0.00 | 0.00 | 0.00 | 76 | 1010.1 |
| 20260507061532 | 6 | 228 | 19.3 | 46.7 | 0.00 | 0.00 | 0.00 | 75 | 1010.2 |
| 20260507061011 | 6 | 234 | 20.9 | 49.9 | 0.00 | 0.00 | 0.00 | 72 | 1010.1 |
| 20260507060515 | 6 | 243 | 19.3 | 46.7 | 0.00 | 0.00 | 0.00 | 70 | 1010.8 |
| 20260507060031 | 6 | 265 | 22.5 | 40.2 | 0.00 | 0.00 | 0.00 | 71 | 1010.3 |
| 20260507055512 | 6 | 207 | 20.9 | 40.2 | 0.00 | 0.00 | 0.00 | 72 | 1010.8 |
| 20260507055014 | 6 | 136 | 19.3 | 45.1 | 0.00 | 0.00 | 0.00 | 72 | 1011.1 |
| 20260507054538 | 6 | 246 | 22.5 | 45.1 | 0.00 | 0.00 | 0.00 | 72 | 1010.6 |
| 20260507054011 | 6 | 247 | 22.5 | 45.1 | 0.00 | 0.00 | 0.00 | 71 | 1011.0 |
| 20260507053510 | 6 | 171 | 24.1 | 45.1 | 0.00 | 0.00 | 0.00 | 73 | 1011.2 |
| 20260507053032 | 6 | 229 | 22.5 | 41.8 | 0.00 | 0.00 | 0.00 | 74 | 1011.4 |
| 20260507052511 | 6 | 243 | 22.5 | 41.8 | 0.00 | 0.00 | 0.00 | 75 | 1011.5 |
| 20260507052010 | 6 | 241 | 17.7 | 43.5 | 0.00 | 0.00 | 0.00 | 74 | 1011.7 |
| 20260507051531 | 6 | 151 | 25.7 | 43.5 | 0.00 | 0.00 | 0.00 | 73 | 1011.5 |
| 20260507051012 | 6 | 151 | 19.3 | 37.0 | 0.00 | 0.00 | 0.00 | 74 | 1011.7 |
| 20260507050511 | 6 | 333 | 20.9 | 37.0 | 0.00 | 0.00 | 0.00 | 72 | 1011.7 |
| 20260507050039 | 6 | 277 | 19.3 | 38.6 | 0.00 | 0.00 | 0.00 | 74 | 1012.3 |
| 20260507045512 | 6 | 206 | 16.1 | 38.6 | 0.00 | 0.00 | 0.00 | 73 | 1012.4 |
| 20260507045013 | 6 | 250 | 17.7 | 38.6 | 0.00 | 0.00 | 0.00 | 72 | 1012.4 |
| 20260507044538 | 7 | 241 | 16.1 | 40.2 | 0.00 | 0.00 | 0.00 | 70 | 1012.5 |
| 20260507044011 | 7 | 199 | 17.7 | 40.2 | 0.00 | 0.00 | 0.00 | 68 | 1012.5 |
| 20260507043511 | 7 | 150 | 17.7 | 37.0 | 0.00 | 0.00 | 0.00 | 69 | 1012.7 |
| 20260507043032 | 7 | 189 | 14.5 | 41.8 | 0.00 | 0.00 | 0.00 | 68 | 1012.7 |
| 20260507042509 | 7 | 227 | 14.5 | 41.8 | 0.00 | 0.00 | 0.00 | 67 | 1012.9 |
| 20260507042012 | 7 | 159 | 16.1 | 40.2 | 0.00 | 0.00 | 0.00 | 67 | 1012.9 |
| 20260507041537 | 7 | 113 | 19.3 | 40.2 | 0.00 | 0.00 | 0.00 | 67 | 1012.9 |
| 20260507041013 | 7 | 238 | 19.3 | 38.6 | 0.00 | 0.00 | 0.00 | 69 | 1012.8 |
| 20260507040511 | 7 | 244 | 17.7 | 38.6 | 0.00 | 0.00 | 0.00 | 66 | 1012.9 |
| 20260507040033 | 8 | 254 | 12.9 | 38.6 | 0.00 | 0.00 | 0.00 | 65 | 1013.0 |
| 20260507035513 | 8 | 215 | 17.7 | 38.6 | 0.00 | 0.00 | 0.00 | 63 | 1012.4 |
| 20260507035013 | 8 | 297 | 17.7 | 41.8 | 0.00 | 0.00 | 0.00 | 62 | 1012.8 |
| 20260507034537 | 8 | 194 | 17.7 | 41.8 | 0.00 | 0.00 | 0.00 | 61 | 1013.0 |
| 20260507034012 | 8 | 258 | 17.7 | 48.3 | 0.00 | 0.00 | 0.00 | 59 | 1012.9 |
| 20260507033510 | 8 | 257 | 19.3 | 48.3 | 0.00 | 0.00 | 0.00 | 58 | 1012.9 |
| 20260507033034 | 8 | 225 | 17.7 | 40.2 | 0.00 | 0.00 | 0.00 | 57 | 1012.7 |
| 20260507032513 | 9 | 212 | 20.9 | 41.8 | 0.00 | 0.00 | 0.00 | 57 | 1012.5 |
| 20260507032013 | 9 | 196 | 19.3 | 41.8 | 0.00 | 0.00 | 0.00 | 56 | 1012.7 |
| 20260507031532 | 9 | 187 | 16.1 | 37.0 | 0.00 | 0.00 | 0.00 | 56 | 1012.9 |
| 20260507031015 | 9 | 246 | 16.1 | 37.0 | 0.00 | 0.00 | 0.00 | 57 | 1012.9 |
| 20260507030511 | 10 | 230 | 16.1 | 37.0 | 0.00 | 0.00 | 0.00 | 56 | 1013.1 |
| 20260507030032 | 10 | 184 | 14.5 | 35.4 | 0.00 | 0.00 | 0.00 | 54 | 1013.5 |
| 20260507025510 | 10 | 165 | 17.7 | 35.4 | 0.00 | 0.00 | 0.00 | 54 | 1013.3 |
| 20260507025010 | 10 | 287 | 14.5 | 30.6 | 0.00 | 0.00 | 0.00 | 54 | 1013.3 |
| 20260507024532 | 10 | 194 | 19.3 | 38.6 | 0.00 | 0.00 | 0.00 | 53 | 1013.4 |
| 20260507024009 | 10 | 130 | 14.5 | 38.6 | 0.00 | 0.00 | 0.00 | 55 | 1013.2 |
| 20260507023516 | 10 | 181 | 11.3 | 29.0 | 0.00 | 0.00 | 0.00 | 55 | 1013.2 |
| 20260507023040 | 10 | 223 | 14.5 | 30.6 | 0.00 | 0.00 | 0.00 | 54 | 1013.1 |
| 20260507022516 | 10 | 205 | 17.7 | 37.0 | 0.00 | 0.00 | 0.00 | 53 | 1013.3 |
| 20260507022013 | 10 | 246 | 16.1 | 37.0 | 0.00 | 0.00 | 0.00 | 53 | 1013.3 |
| 20260507021533 | 10 | 222 | 16.1 | 43.5 | 0.00 | 0.00 | 0.00 | 53 | 1013.3 |
| 20260507021012 | 11 | 228 | 19.3 | 43.5 | 0.00 | 0.00 | 0.00 | 53 | 1013.2 |
| 20260507020510 | 11 | 251 | 19.3 | 40.2 | 0.00 | 0.00 | 0.00 | 52 | 1013.3 |
| 20260507020034 | 11 | 228 | 16.1 | 48.3 | 0.00 | 0.00 | 0.00 | 50 | 1013.6 |
| 20260507015511 | 11 | 138 | 16.1 | 48.3 | 0.00 | 0.00 | 0.00 | 51 | 1013.3 |
| 20260507015012 | 11 | 236 | 14.5 | 48.3 | 0.00 | 0.00 | 0.00 | 51 | 1013.6 |
| 20260507014542 | 11 | 212 | 16.1 | 48.3 | 0.00 | 0.00 | 0.00 | 50 | 1013.7 |
| 20260507014013 | 11 | 219 | 19.3 | 35.4 | 0.00 | 0.00 | 0.00 | 50 | 1013.5 |
| 20260507013513 | 11 | 262 | 12.9 | 32.2 | 0.00 | 0.00 | 0.00 | 50 | 1013.4 |
| 20260507013032 | 11 | 247 | 16.1 | 32.2 | 0.00 | 0.00 | 0.00 | 49 | 1013.3 |
| 20260507012510 | 11 | 300 | 17.7 | 32.2 | 0.00 | 0.00 | 0.00 | 49 | 1013.3 |
| 20260507012011 | 11 | 188 | 11.3 | 40.2 | 0.00 | 0.00 | 0.00 | 50 | 1013.0 |
| 20260507011532 | 11 | 182 | 14.5 | 40.2 | 0.00 | 0.00 | 0.00 | 48 | 1013.1 |
| 20260507011012 | 11 | 171 | 16.1 | 32.2 | 0.00 | 0.00 | 0.00 | 49 | 1012.9 |
| 20260507010515 | 11 | 142 | 17.7 | 33.8 | 0.00 | 0.00 | 0.00 | 48 | 1013.3 |
| 20260507010030 | 11 | 258 | 16.1 | 46.7 | 0.00 | 0.00 | 0.00 | 47 | 1013.1 |
| 20260507005511 | 11 | 207 | 19.3 | 46.7 | 0.00 | 0.00 | 0.00 | 47 | 1013.2 |
| 20260507005013 | 11 | 192 | 19.3 | 37.0 | 0.00 | 0.00 | 0.00 | 47 | 1013.2 |
| 20260507004541 | 12 | 263 | 19.3 | 38.6 | 0.00 | 0.00 | 0.00 | 47 | 1013.4 |
| 20260507004011 | 12 | 275 | 17.7 | 37.0 | 0.00 | 0.00 | 0.00 | 47 | 1013.1 |
| 20260507003511 | 12 | 248 | 17.7 | 37.0 | 0.00 | 0.00 | 0.00 | 48 | 1013.2 |
| 20260507003034 | 12 | 177 | 20.9 | 38.6 | 0.00 | 0.00 | 0.00 | 48 | 1013.2 |
| 20260507002512 | 12 | 217 | 17.7 | 37.0 | 0.00 | 0.00 | 0.00 | 48 | 1013.2 |
| 20260507002011 | 12 | 285 | 14.5 | 40.2 | 0.00 | 0.00 | 0.00 | 48 | 1013.1 |
| 20260507001531 | 12 | 174 | 11.3 | 40.2 | 0.00 | 0.00 | 0.00 | 49 | 1013.3 |
| 20260507001011 | 12 | 264 | 20.9 | 40.2 | 0.00 | 0.00 | 0.00 | 49 | 1013.4 |
| 20260507000511 | 12 | 144 | 16.1 | 40.2 | 0.00 | 0.00 | 0.00 | 48 | 1013.3 |
| 20260507000038 | 12 | 229 | 16.1 | 37.0 | 0.00 | 0.00 | 0.00 | 49 | 1013.3 |
| 20260506235512 | 12 | 202 | 14.5 | 37.0 | 0.00 | 0.00 | 0.00 | 50 | 1013.3 |
| 20260506235012 | 12 | 241 | 19.3 | 32.2 | 0.00 | 0.00 | 0.00 | 51 | 1013.7 |
| 20260506234536 | 12 | 225 | 17.7 | 38.6 | 0.00 | 0.00 | 0.00 | 51 | 1013.4 |
| 20260506234011 | 12 | 128 | 17.7 | 49.9 | 0.00 | 0.00 | 0.00 | 50 | 1013.4 |
| 20260506233512 | 12 | 242 | 19.3 | 49.9 | 0.00 | 0.00 | 0.00 | 52 | 1013.4 |
| 20260506233032 | 12 | 232 | 19.3 | 40.2 | 0.00 | 0.00 | 0.00 | 53 | 1013.6 |
| 20260506232513 | 12 | 219 | 17.7 | 40.2 | 0.00 | 0.00 | 0.00 | 53 | 1013.4 |
| 20260506232011 | 12 | 193 | 25.7 | 40.2 | 0.00 | 0.00 | 0.00 | 52 | 1013.4 |
| 20260506231534 | 12 | 251 | 17.7 | 32.2 | 0.00 | 0.00 | 0.00 | 51 | 1013.2 |
| 20260506231013 | 12 | 119 | 19.3 | 32.2 | 0.00 | 0.00 | 0.00 | 51 | 1013.4 |
| 20260506230515 | 12 | 207 | 11.3 | 32.2 | 0.00 | 0.00 | 0.00 | 53 | 1013.4 |
| 20260506230050 | 13 | 191 | 14.5 | 35.4 | 0.00 | 0.00 | 0.00 | 50 | 1013.5 |
| 20260506225511 | 13 | 248 | 17.7 | 37.0 | 0.00 | 0.00 | 0.00 | 50 | 1013.7 |
| 20260506225013 | 13 | 197 | 17.7 | 37.0 | 0.00 | 0.00 | 0.00 | 51 | 1013.5 |
| 20260506224532 | 13 | 141 | 19.3 | 51.5 | 0.00 | 0.00 | 0.00 | 51 | 1013.7 |
| 20260506224012 | 13 | 215 | 17.7 | 38.6 | 0.00 | 0.00 | 0.00 | 50 | 1013.9 |
| 20260506223513 | 13 | 173 | 20.9 | 35.4 | 0.00 | 0.00 | 0.00 | 50 | 1014.1 |
| 20260506223046 | 13 | 213 | 16.1 | 35.4 | 0.00 | 0.00 | 0.00 | 50 | 1014.0 |
| 20260506222514 | 13 | 192 | 20.9 | 38.6 | 0.00 | 0.00 | 0.00 | 47 | 1014.0 |
| 20260506222013 | 13 | 229 | 14.5 | 35.4 | 0.00 | 0.00 | 0.00 | 48 | 1014.2 |
| 20260506221532 | 13 | 246 | 16.1 | 35.4 | 0.00 | 0.00 | 0.00 | 47 | 1014.1 |
| 20260506221017 | 13 | 205 | 12.9 | 30.6 | 0.00 | 0.00 | 0.00 | 48 | 1014.2 |
| 20260506220516 | 13 | 143 | 20.9 | 30.6 | 0.00 | 0.00 | 0.00 | 46 | 1014.4 |
| 20260506220033 | 14 | 158 | 12.9 | 32.2 | 0.00 | 0.00 | 0.00 | 46 | 1014.4 |
| 20260506215516 | 13 | 250 | 14.5 | 33.8 | 0.00 | 0.00 | 0.00 | 48 | 1014.4 |
| 20260506215013 | 13 | 180 | 14.5 | 33.8 | 0.00 | 0.00 | 0.00 | 46 | 1014.3 |
| 20260506214531 | 14 | 134 | 12.9 | 30.6 | 0.00 | 0.00 | 0.00 | 48 | 1014.4 |
| 20260506214014 | 13 | 154 | 12.9 | 33.8 | 0.00 | 0.00 | 0.00 | 47 | 1014.3 |
| 20260506213511 | 13 | 164 | 12.9 | 40.2 | 0.00 | 0.00 | 0.00 | 49 | 1014.2 |
| 20260506213045 | 13 | 198 | 20.9 | 40.2 | 0.00 | 0.00 | 0.00 | 49 | 1014.5 |
| 20260506212513 | 13 | 129 | 16.1 | 35.4 | 0.00 | 0.00 | 0.00 | 50 | 1014.4 |
| 20260506212010 | 13 | 235 | 14.5 | 35.4 | 0.00 | 0.00 | 0.00 | 50 | 1014.6 |
| 20260506211539 | 14 | 160 | 12.9 | 35.4 | 0.00 | 0.00 | 0.00 | 48 | 1014.4 |
| 20260506211014 | 14 | 119 | 14.5 | 35.4 | 0.00 | 0.00 | 0.00 | 45 | 1014.5 |
| 20260506210511 | 14 | 198 | 12.9 | 33.8 | 0.00 | 0.00 | 0.00 | 43 | 1014.3 |
| 20260506210037 | 15 | 149 | 17.7 | 32.2 | 0.00 | 0.00 | 0.00 | 44 | 1014.5 |
| 20260506205511 | 14 | 208 | 14.5 | 35.4 | 0.00 | 0.00 | 0.00 | 44 | 1014.5 |
| 20260506205013 | 14 | 174 | 14.5 | 30.6 | 0.00 | 0.00 | 0.00 | 46 | 1014.3 |
| 20260506204545 | 14 | 215 | 11.3 | 32.2 | 0.00 | 0.00 | 0.00 | 47 | 1014.4 |
| 20260506204013 | 15 | 194 | 16.1 | 32.2 | 0.00 | 0.00 | 0.00 | 45 | 1014.3 |
| 20260506203513 | 15 | 200 | 12.9 | 27.4 | 0.00 | 0.00 | 0.00 | 46 | 1014.3 |
| 20260506203040 | 15 | 223 | 11.3 | 30.6 | 0.00 | 0.00 | 0.00 | 45 | 1014.3 |
| 20260506202511 | 15 | 189 | 12.9 | 30.6 | 0.00 | 0.00 | 0.00 | 43 | 1014.2 |
| 20260506202011 | 15 | 245 | 9.7 | 30.6 | 0.00 | 0.00 | 0.00 | 45 | 1014.3 |
| 20260506201551 | 15 | 200 | 12.9 | 29.0 | 0.00 | 0.00 | 0.00 | 44 | 1014.3 |
| 20260506201012 | 15 | 120 | 11.3 | 30.6 | 0.00 | 0.00 | 0.00 | 44 | 1014.3 |
| 20260506200513 | 15 | 233 | 12.9 | 24.1 | 0.00 | 0.00 | 0.00 | 47 | 1014.2 |
| 20260506200040 | 15 | 251 | 11.3 | 29.0 | 0.00 | 0.00 | 0.00 | 45 | 1014.2 |
| 20260506195513 | 15 | 250 | 12.9 | 25.7 | 0.00 | 0.00 | 0.00 | 43 | 1014.2 |
| 20260506195011 | 15 | 225 | 11.3 | 24.1 | 0.00 | 0.00 | 0.00 | 44 | 1014.2 |
| 20260506194552 | 15 | 215 | 12.9 | 19.3 | 0.00 | 0.00 | 0.00 | 45 | 1014.2 |
| 20260506194013 | 15 | 232 | 8.0 | 22.5 | 0.00 | 0.00 | 0.00 | 45 | 1014.3 |
| 20260506193514 | 15 | 236 | 9.7 | 17.7 | 0.00 | 0.00 | 0.00 | 44 | 1014.7 |
| 20260506193040 | 15 | 220 | 9.7 | 24.1 | 0.00 | 0.00 | 0.00 | 44 | 1014.6 |
| 20260506192514 | 15 | 165 | 12.9 | 24.1 | 0.00 | 0.00 | 0.00 | 43 | 1014.6 |
| 20260506192011 | 15 | 132 | 11.3 | 24.1 | 0.00 | 0.00 | 0.00 | 45 | 1014.7 |
| 20260506191545 | 15 | 269 | 11.3 | 25.7 | 0.00 | 0.00 | 0.00 | 45 | 1014.3 |
| 20260506191016 | 15 | 213 | 12.9 | 25.7 | 0.00 | 0.00 | 0.00 | 45 | 1014.1 |
| 20260506190520 | 15 | 284 | 11.3 | 24.1 | 0.00 | 0.00 | 0.00 | 44 | 1014.2 |
| 20260506190044 | 15 | 139 | 8.0 | 22.5 | 0.00 | 0.00 | 0.00 | 44 | 1014.2 |
| 20260506185514 | 16 | 298 | 8.0 | 24.1 | 0.00 | 0.00 | 0.00 | 43 | 1014.4 |
| 20260506185014 | 15 | 207 | 11.3 | 24.1 | 0.00 | 0.00 | 0.00 | 44 | 1014.1 |
| 20260506184540 | 15 | 107 | 8.0 | 24.1 | 0.00 | 0.00 | 0.00 | 45 | 1014.1 |
| 20260506184017 | 15 | 110 | 9.7 | 25.7 | 0.00 | 0.00 | 0.00 | 45 | 1014.2 |
| 20260506183517 | 15 | 202 | 9.7 | 25.7 | 0.00 | 0.00 | 0.00 | 45 | 1014.1 |
| 20260506183052 | 15 | 104 | 6.4 | 20.9 | 0.00 | 0.00 | 0.00 | 45 | 1014.1 |
| 20260506182514 | 15 | 181 | 8.0 | 20.9 | 0.00 | 0.00 | 0.00 | 45 | 1014.1 |
| 20260506182015 | 15 | 267 | 4.8 | 19.3 | 0.00 | 0.00 | 0.00 | 44 | 1014.3 |
| 20260506181538 | 15 | 290 | 8.0 | 20.9 | 0.00 | 0.00 | 0.00 | 44 | 1014.3 |
| 20260506181017 | 15 | 178 | 8.0 | 27.4 | 0.00 | 0.00 | 0.00 | 46 | 1014.2 |
| 20260506180516 | 14 | 198 | 6.4 | 22.5 | 0.00 | 0.00 | 0.00 | 49 | 1014.4 |
| 20260506180040 | 14 | 182 | 12.9 | 22.5 | 0.00 | 0.00 | 0.00 | 49 | 1014.3 |
| 20260506175519 | 14 | 241 | 11.3 | 24.1 | 0.00 | 0.00 | 0.00 | 49 | 1014.2 |
| 20260506175014 | 14 | 267 | 12.9 | 32.2 | 0.00 | 0.00 | 0.00 | 48 | 1014.3 |
| 20260506174539 | 14 | 263 | 12.9 | 32.2 | 0.00 | 0.00 | 0.00 | 48 | 1013.9 |
| 20260506174014 | 15 | 225 | 8.0 | 25.7 | 0.00 | 0.00 | 0.00 | 47 | 1014.1 |
| 20260506173515 | 15 | 222 | 11.3 | 24.1 | 0.00 | 0.00 | 0.00 | 46 | 1014.1 |
| 20260506173050 | 15 | 196 | 11.3 | 25.7 | 0.00 | 0.00 | 0.00 | 45 | 1014.1 |
| 20260506172513 | 15 | 246 | 11.3 | 19.3 | 0.00 | 0.00 | 0.00 | 44 | 1014.1 |
| 20260506172015 | 15 | 218 | 6.4 | 14.5 | 0.00 | 0.00 | 0.00 | 45 | 1014.2 |
| 20260506171541 | 15 | 267 | 8.0 | 14.5 | 0.00 | 0.00 | 0.00 | 48 | 1014.1 |
| 20260506171019 | 14 | 233 | 8.0 | 12.9 | 0.00 | 0.00 | 0.00 | 48 | 1013.9 |
| 20260506170519 | 13 | 225 | 8.0 | 14.5 | 0.00 | 0.00 | 0.00 | 53 | 1014.1 |
| 20260506170100 | 14 | 248 | 6.4 | 16.1 | 0.00 | 0.00 | 0.00 | 52 | 1014.1 |
| 20260506165514 | 14 | 276 | 6.4 | 16.1 | 0.00 | 0.00 | 0.00 | 53 | 1014.1 |
| 20260506165014 | 14 | 251 | 8.0 | 19.3 | 0.00 | 0.00 | 0.00 | 52 | 1013.9 |
| 20260506164538 | 14 | 267 | 8.0 | 19.3 | 0.00 | 0.00 | 0.00 | 49 | 1013.7 |
| 20260506164021 | 14 | 227 | 8.0 | 12.9 | 0.00 | 0.00 | 0.00 | 47 | 1013.7 |
| 20260506163517 | 13 | 254 | 8.0 | 25.7 | 0.00 | 0.00 | 0.00 | 47 | 1013.6 |
| 20260506163041 | 13 | 252 | 8.0 | 19.3 | 0.00 | 0.00 | 0.00 | 45 | 1013.9 |
| 20260506162516 | 12 | 223 | 8.0 | 17.7 | 0.00 | 0.00 | 0.00 | 52 | 1013.9 |
| 20260506162016 | 12 | 244 | 8.0 | 16.1 | 0.00 | 0.00 | 0.00 | 55 | 1013.8 |
| 20260506161540 | 12 | 295 | 6.4 | 12.9 | 0.00 | 0.00 | 0.00 | 61 | 1013.8 |
| 20260506161013 | 12 | 225 | 4.8 | 14.5 | 0.00 | 0.00 | 0.00 | 56 | 1013.7 |
| 20260506160515 | 12 | 242 | 6.4 | 14.5 | 0.00 | 0.00 | 0.00 | 59 | 1014.0 |
| 20260506160046 | 12 | 236 | 9.7 | 14.5 | 0.00 | 0.00 | 0.00 | 58 | 1013.9 |
| 20260506155514 | 12 | 271 | 6.4 | 19.3 | 0.00 | 0.00 | 0.00 | 64 | 1014.0 |
| 20260506155013 | 12 | 239 | 9.7 | 24.1 | 0.00 | 0.00 | 0.00 | 52 | 1013.9 |
| 20260506154543 | 11 | 289 | 9.7 | 24.1 | 0.00 | 0.00 | 0.00 | 55 | 1013.9 |
| 20260506154016 | 11 | 232 | 6.4 | 17.7 | 0.00 | 0.00 | 0.00 | 60 | 1014.0 |
| 20260506153515 | 11 | 236 | 9.7 | 19.3 | 0.00 | 0.00 | 0.00 | 63 | 1013.9 |
| 20260506153045 | 11 | 279 | 8.0 | 12.9 | 0.00 | 0.00 | 0.00 | 59 | 1013.8 |
| 20260506152518 | 11 | 248 | 6.4 | 16.1 | 0.00 | 0.00 | 0.00 | 64 | 1013.8 |
| 20260506152016 | 12 | 272 | 8.0 | 19.3 | 0.00 | 0.00 | 0.00 | 58 | 1013.8 |
| 20260506151546 | 12 | 255 | 8.0 | 19.3 | 0.00 | 0.00 | 0.00 | 49 | 1013.7 |
| 20260506151017 | 12 | 277 | 8.0 | 24.1 | 0.00 | 0.00 | 0.00 | 51 | 1013.6 |
| 20260506150513 | 11 | 265 | 12.9 | 25.7 | 0.00 | 0.00 | 0.00 | 52 | 1013.7 |
| 20260506150046 | 10 | 258 | 8.0 | 16.1 | 0.00 | 0.00 | 0.00 | 63 | 1013.7 |
| 20260506145517 | 10 | 275 | 6.4 | 14.5 | 0.00 | 0.00 | 0.00 | 63 | 1013.7 |
| 20260506145018 | 10 | 243 | 8.0 | 14.5 | 0.00 | 0.00 | 0.00 | 63 | 1013.6 |
| 20260506144558 | 11 | 252 | 4.8 | 14.5 | 0.00 | 0.00 | 0.00 | 61 | 1013.6 |
| 20260506144014 | 11 | 211 | 8.0 | 12.9 | 0.00 | 0.00 | 0.00 | 59 | 1013.5 |
| 20260506143514 | 10 | 203 | 8.0 | 19.3 | 0.00 | 0.00 | 0.00 | 59 | 1013.4 |
| 20260506143041 | 10 | 227 | 12.9 | 19.3 | 0.00 | 0.00 | 0.00 | 59 | 1013.4 |
| 20260506142520 | 10 | 223 | 11.3 | 17.7 | 0.00 | 0.00 | 0.00 | 61 | 1013.4 |
| 20260506142019 | 11 | 265 | 8.0 | 16.1 | 0.00 | 0.00 | 0.00 | 59 | 1013.3 |
| 20260506141538 | 10 | 225 | 6.4 | 19.3 | 0.00 | 0.00 | 0.00 | 58 | 1013.3 |
| 20260506141019 | 10 | 223 | 4.8 | 11.3 | 0.00 | 0.00 | 0.00 | 61 | 1013.2 |
| 20260506140517 | 10 | 240 | 6.4 | 11.3 | 0.00 | 0.00 | 0.00 | 60 | 1013.2 |
| 20260506140043 | 10 | 235 | 4.8 | 19.3 | 0.00 | 0.00 | 0.00 | 59 | 1013.4 |
| 20260506135516 | 11 | 248 | 6.4 | 19.3 | 0.00 | 0.00 | 0.00 | 54 | 1013.2 |
| 20260506135014 | 10 | 238 | 3.2 | 12.9 | 0.00 | 0.00 | 0.00 | 62 | 1013.1 |
| 20260506134556 | 10 | 260 | 6.4 | 12.9 | 0.00 | 0.00 | 0.00 | 60 | 1013.2 |
| 20260506134017 | 11 | 252 | 6.4 | 19.3 | 0.00 | 0.00 | 0.00 | 54 | 1013.2 |
| 20260506133519 | 11 | 186 | 9.7 | 19.3 | 0.00 | 0.00 | 0.00 | 53 | 1013.2 |
| 20260506133044 | 11 | 265 | 9.7 | 16.1 | 0.00 | 0.00 | 0.00 | 52 | 1013.2 |
| 20260506132520 | 11 | 233 | 4.8 | 22.5 | 0.00 | 0.00 | 0.00 | 53 | 1013.1 |
| 20260506132018 | 12 | 246 | 11.3 | 22.5 | 0.00 | 0.00 | 0.00 | 43 | 1013.0 |
| 20260506131545 | 11 | 158 | 11.3 | 22.5 | 0.00 | 0.00 | 0.00 | 46 | 1013.0 |
| 20260506131014 | 11 | 246 | 8.0 | 19.3 | 0.00 | 0.00 | 0.00 | 48 | 1013.0 |
| 20260506130520 | 11 | 188 | 8.0 | 24.1 | 0.00 | 0.00 | 0.00 | 47 | 1012.9 |
| 20260506130046 | 11 | 228 | 11.3 | 24.1 | 0.00 | 0.00 | 0.00 | 46 | 1012.9 |
| 20260506125515 | 11 | 249 | 6.4 | 12.9 | 0.00 | 0.00 | 0.00 | 52 | 1012.9 |
| 20260506125019 | 12 | 207 | 6.4 | 16.1 | 0.00 | 0.00 | 0.00 | 48 | 1012.9 |
| 20260506124540 | 12 | 237 | 11.3 | 25.7 | 0.00 | 0.00 | 0.00 | 43 | 1012.8 |
| 20260506124017 | 12 | 257 | 11.3 | 25.7 | 0.00 | 0.00 | 0.00 | 41 | 1012.9 |
| 20260506123517 | 12 | 257 | 9.7 | 20.9 | 0.00 | 0.00 | 0.00 | 46 | 1012.7 |
| 20260506123039 | 12 | 248 | 9.7 | 24.1 | 0.00 | 0.00 | 0.00 | 40 | 1012.8 |
| 20260506122510 | 12 | 259 | 12.9 | 24.1 | 0.00 | 0.00 | 0.00 | 41 | 1013.0 |
| 20260506122014 | 12 | 223 | 12.9 | 24.1 | 0.00 | 0.00 | 0.00 | 43 | 1012.9 |
| 20260506121531 | 12 | 223 | 14.5 | 25.7 | 0.00 | 0.00 | 0.00 | 44 | 1012.8 |
| 20260506121011 | 11 | 156 | 9.7 | 27.4 | 0.00 | 0.00 | 0.00 | 46 | 1012.8 |
| 20260506120511 | 11 | 244 | 8.0 | 19.3 | 0.00 | 0.00 | 0.00 | 47 | 1012.9 |
| 20260506120040 | 11 | 221 | 8.0 | 20.9 | 0.00 | 0.00 | 0.00 | 46 | 1012.9 |
| 20260506115509 | 12 | 229 | 9.7 | 20.9 | 0.00 | 0.00 | 0.00 | 43 | 1012.9 |
| 20260506115009 | 12 | 200 | 8.0 | 22.5 | 0.00 | 0.00 | 0.00 | 42 | 1012.8 |
| 20260506114532 | 12 | 184 | 11.3 | 20.9 | 0.00 | 0.00 | 0.00 | 42 | 1012.7 |
| 20260506114012 | 12 | 246 | 11.3 | 27.4 | 0.00 | 0.00 | 0.00 | 42 | 1012.7 |
| 20260506113509 | 12 | 150 | 11.3 | 27.4 | 0.00 | 0.00 | 0.00 | 44 | 1012.8 |
| 20260506113034 | 12 | 249 | 12.9 | 22.5 | 0.00 | 0.00 | 0.00 | 43 | 1012.8 |
| 20260506112512 | 12 | 146 | 11.3 | 25.7 | 0.00 | 0.00 | 0.00 | 42 | 1012.9 |
| 20260506112011 | 12 | 209 | 11.3 | 25.7 | 0.00 | 0.00 | 0.00 | 43 | 1012.7 |
| 20260506111531 | 12 | 180 | 8.0 | 19.3 | 0.00 | 0.00 | 0.00 | 42 | 1012.7 |
| 20260506111017 | 12 | 213 | 11.3 | 17.7 | 0.00 | 0.00 | 0.00 | 43 | 1012.7 |
| 20260506110510 | 12 | 204 | 6.4 | 19.3 | 0.00 | 0.00 | 0.00 | 41 | 1012.7 |
| 20260506110033 | 12 | 211 | 9.7 | 19.3 | 0.00 | 0.00 | 0.00 | 40 | 1012.5 |
| 20260506105510 | 12 | 202 | 9.7 | 19.3 | 0.00 | 0.00 | 0.00 | 41 | 1012.5 |
| 20260506105009 | 12 | 210 | 11.3 | 19.3 | 0.00 | 0.00 | 0.00 | 40 | 1012.5 |
| 20260506104530 | 12 | 233 | 11.3 | 20.9 | 0.00 | 0.00 | 0.00 | 40 | 1012.4 |
| 20260506104010 | 13 | 205 | 9.7 | 24.1 | 0.00 | 0.00 | 0.00 | 38 | 1012.4 |
| 20260506103511 | 12 | 205 | 8.0 | 30.6 | 0.00 | 0.00 | 0.00 | 39 | 1012.4 |
| 20260506103040 | 12 | 238 | 11.3 | 30.6 | 0.00 | 0.00 | 0.00 | 37 | 1012.4 |
| 20260506102510 | 12 | 211 | 12.9 | 20.9 | 0.00 | 0.00 | 0.00 | 39 | 1012.5 |
| 20260506102011 | 12 | 264 | 9.7 | 17.7 | 0.00 | 0.00 | 0.00 | 41 | 1012.3 |
| 20260506101530 | 12 | 236 | 8.0 | 19.3 | 0.00 | 0.00 | 0.00 | 44 | 1012.4 |
| 20260506101009 | 12 | 245 | 8.0 | 19.3 | 0.00 | 0.00 | 0.00 | 41 | 1012.4 |
| 20260506100508 | 12 | 233 | 11.3 | 17.7 | 0.00 | 0.00 | 0.00 | 40 | 1012.3 |
| 20260506100034 | 12 | 233 | 6.4 | 17.7 | 0.00 | 0.00 | 0.00 | 44 | 1012.3 |
| 20260506095509 | 12 | 153 | 9.7 | 17.7 | 0.00 | 0.00 | 0.00 | 38 | 1012.3 |
| 20260506095011 | 13 | 211 | 8.0 | 17.7 | 0.00 | 0.00 | 0.00 | 37 | 1012.2 |
| 20260506094533 | 12 | 146 | 11.3 | 20.9 | 0.00 | 0.00 | 0.00 | 36 | 1012.2 |
| 20260506094009 | 13 | 271 | 8.0 | 25.7 | 0.00 | 0.00 | 0.00 | 38 | 1012.3 |
| 20260506093509 | 13 | 254 | 11.3 | 22.5 | 0.00 | 0.00 | 0.00 | 38 | 1012.3 |
| 20260506093029 | 13 | 233 | 14.5 | 25.7 | 0.00 | 0.00 | 0.00 | 38 | 1012.5 |
| 20260506092510 | 13 | 220 | 9.7 | 24.1 | 0.00 | 0.00 | 0.00 | 37 | 1012.4 |
| 20260506092011 | 13 | 241 | 11.3 | 24.1 | 0.00 | 0.00 | 0.00 | 35 | 1012.4 |
| 20260506091532 | 13 | 188 | 11.3 | 25.7 | 0.00 | 0.00 | 0.00 | 36 | 1012.4 |
| 20260506091011 | 13 | 220 | 12.9 | 20.9 | 0.00 | 0.00 | 0.00 | 36 | 1012.4 |
| 20260506090508 | 13 | 250 | 6.4 | 24.1 | 0.00 | 0.00 | 0.00 | 38 | 1012.5 |
| 20260506090043 | 13 | 216 | 12.9 | 24.1 | 0.00 | 0.00 | 0.00 | 36 | 1012.5 |
| 20260506085512 | 13 | 232 | 14.5 | 24.1 | 0.00 | 0.00 | 0.00 | 37 | 1012.5 |
| 20260506085013 | 13 | 238 | 11.3 | 25.7 | 0.00 | 0.00 | 0.00 | 38 | 1012.6 |
| 20260506084530 | 13 | 196 | 9.7 | 25.7 | 0.00 | 0.00 | 0.00 | 37 | 1012.6 |
| 20260506084010 | 13 | 190 | 12.9 | 25.7 | 0.00 | 0.00 | 0.00 | 36 | 1012.5 |
| 20260506083512 | 13 | 236 | 8.0 | 25.7 | 0.00 | 0.00 | 0.00 | 38 | 1012.6 |
| 20260506083029 | 13 | 236 | 11.3 | 25.7 | 0.00 | 0.00 | 0.00 | 36 | 1012.5 |
| 20260506082509 | 13 | 215 | 9.7 | 20.9 | 0.00 | 0.00 | 0.00 | 37 | 1012.5 |
| 20260506082011 | 13 | 240 | 11.3 | 20.9 | 0.00 | 0.00 | 0.00 | 38 | 1012.5 |
| 20260506081537 | 13 | 198 | 6.4 | 20.9 | 0.00 | 0.00 | 0.00 | 38 | 1012.5 |
| 20260506081012 | 13 | 190 | 9.7 | 22.5 | 0.00 | 0.00 | 0.00 | 38 | 1012.5 |
| 20260506080513 | 13 | 200 | 11.3 | 22.5 | 0.00 | 0.00 | 0.00 | 38 | 1012.4 |
| 20260506073512 | 12 | 209 | 9.7 | 24.1 | 0.00 | 0.00 | 0.00 | 39 | 1012.7 |
| 20260506073034 | 12 | 170 | 9.7 | 24.1 | 0.00 | 0.00 | 0.00 | 40 | 1012.4 |
| 20260506072513 | 12 | 214 | 8.0 | 20.9 | 0.00 | 0.00 | 0.00 | 43 | 1012.4 |
| 20260506072011 | 12 | 234 | 9.7 | 20.9 | 0.00 | 0.00 | 0.00 | 45 | 1012.4 |
| 20260506071532 | 11 | 153 | 8.0 | 17.7 | 0.00 | 0.00 | 0.00 | 49 | 1012.4 |
| 20260506071010 | 11 | 267 | 9.7 | 17.7 | 0.00 | 0.00 | 0.00 | 48 | 1012.4 |
| 20260506070510 | 11 | 180 | 6.4 | 12.9 | 0.00 | 0.00 | 0.00 | 49 | 1012.5 |